Regional Weather Roundup
Issued by NWS

Home | Current Version | Previous Version | Text Only | Print | Product List | Glossary Off
Versions: 1 2 3 4 5 6 7 8 9 10 11 12 13 14 15 16 17 18 19 20 21 22 23 24 25 26 27 28 29 30 31 32 33 34 35 36 37 38 39 40 41 42 43 44 45 46 47 48 49 50

000
ASUS43 KTOP 230859
RWRKS

WEATHER ROUNDUP FOR KANSAS
NATIONAL WEATHER SERVICE GOODLAND KS
300 AM CST TUE JAN 23 2018

NOTE:  "FAIR" INDICATES FEW OR NO CLOUDS BELOW 12,000 FEET WITH NO
SIGNIFICANT WEATHER AND/OR OBSTRUCTIONS TO VISIBILITY.

KSZ001>006-013>018-027>032-041>047-231000-
NORTHWEST KANSAS

CITY           SKY/WX    TMP DP  RH WIND       PRES   REMARKS
GOODLAND       PTCLDY    16   7  67 NW14      30.11S WCI   2
HAYS           CLEAR     23  17  78 NW12      30.11R WCI  12
HILL CITY      CLEAR     24  16  71 NW9       30.12R
RUSSELL        CLEAR     27  19  72 NW17      30.09R WCI  14
$$

KSZ061>065-074>080-084>089-231000-
SOUTHWEST KANSAS

CITY           SKY/WX    TMP DP  RH WIND       PRES   REMARKS
DODGE CITY     CLEAR     24  13  62 NW14      30.13R WCI  12
GARDEN CITY    CLEAR     16  10  77 W12       30.14R WCI   3
GREAT BEND     CLEAR     26  18  71 NW14      30.11R WCI  14
LIBERAL        CLEAR     20  10  65 NW12      30.16S WCI   8
$$

KSZ066>073-081>083-090>101-231000-
SOUTHEAST KANSAS

CITY           SKY/WX    TMP DP  RH WIND       PRES   REMARKS
COFFEYVILLE    CLEAR     33  24  69 NW9       30.07R
HUTCHINSON     CLEAR     27  21  78 NW12      30.08R WCI  17
MEDICINE LODGE   N/A     31  17  56 NW12      30.11R WCI  22
NEWTON         CLEAR     27  22  81 NW14      30.06R WCI  16
PARSONS        PTCLDY    31  26  82 NW9       30.06R
WICHITA INTL   CLEAR     29  21  72 NW13      30.08R WCI  19
WICHITA JABRA  CLEAR     29  22  75 NW14      30.07R WCI  18
WICHITA MCCONL CLEAR     30  20  67 NW14      30.07R WCI  19
WINFIELD       CLEAR     29  22  75 NW12      30.09R WCI  19
$$

KSZ007>012-019>026-033>040-048>060-102>105-231000-
NORTHEAST KANSAS

CITY           SKY/WX    TMP DP  RH WIND       PRES   REMARKS
CONCORDIA      CLEAR     25  20  81 NW12      30.06R WCI  14
EMPORIA        MOCLDY    27  21  78 NW13      30.04R WCI  16
LAWRENCE       CLOUDY    30  25  81 W16       30.00R WCI  19
MANHATTAN      CLOUDY    28  22  78 VRB7      30.06R
OLATHE IND     CLOUDY    29  25  85 NW17G26   29.98R WCI  17
OLATHE EXE     CLOUDY    29  25  85 NW21G26   29.96R WCI  16
SALINA         CLEAR     28  22  78 NW13      30.08R WCI  17
TOPEKA BILLARD CLOUDY    29  25  85 NW17G26   30.02R WCI  17
TOPEKA FORBES  CLOUDY    29  25  85 NW17      30.01R WCI  17
$$




USA.gov is the U.S. government's official web portal to all federal, state and local government web resources and services.